| time (UTC) | temp C | wind direction | speed KPH | gust KPH | rain 1hr cm | rain 24hr cm | rain mn cm | humidity % | barometer mb |
| 20260508010037 | 14 | 226 | 0.0 | 0.0 | 0.00 | 0.00 | 0.00 | 71 | 1010.3 |
| 20260508004510 | 14 | 226 | 0.0 | 0.0 | 0.00 | 0.00 | 0.00 | 71 | 1010.5 |
| 20260508003016 | 14 | 226 | 0.0 | 3.2 | 0.00 | 0.00 | 0.00 | 71 | 1010.7 |
| 20260508001522 | 14 | 226 | 0.0 | 3.2 | 0.00 | 0.00 | 0.00 | 71 | 1010.7 |
| 20260508000025 | 14 | 226 | 0.0 | 3.2 | 0.00 | 0.00 | 0.00 | 71 | 1010.7 |
| 20260507234525 | 14 | 226 | 0.0 | 1.6 | 0.00 | 0.00 | 0.00 | 70 | 1010.8 |
| 20260507233015 | 14 | 226 | 0.0 | 3.2 | 0.00 | 0.00 | 0.00 | 69 | 1010.9 |
| 20260507231519 | 14 | 226 | 0.0 | 3.2 | 0.00 | 0.00 | 0.00 | 69 | 1010.9 |
| 20260507230032 | 14 | 226 | 0.0 | 3.2 | 0.00 | 0.00 | 0.00 | 69 | 1010.7 |
| 20260507224532 | 14 | 225 | 1.6 | 4.8 | 0.00 | 0.00 | 0.00 | 69 | 1010.9 |
| 20260507223052 | 14 | 232 | 1.6 | 4.8 | 0.00 | 0.00 | 0.00 | 69 | 1011.2 |
| 20260507221517 | 14 | 236 | 3.2 | 8.0 | 0.00 | 0.00 | 0.00 | 69 | 1011.2 |
| 20260507220021 | 15 | 207 | 3.2 | 6.4 | 0.00 | 0.00 | 0.00 | 68 | 1011.4 |
| 20260507214525 | 15 | 210 | 3.2 | 8.0 | 0.00 | 0.00 | 0.00 | 68 | 1011.6 |
| 20260507213026 | 15 | 201 | 4.8 | 12.9 | 0.00 | 0.00 | 0.00 | 68 | 1011.5 |
| 20260507211528 | 15 | 227 | 4.8 | 14.5 | 0.00 | 0.00 | 0.00 | 68 | 1011.5 |
| 20260507210019 | 15 | 186 | 6.4 | 11.3 | 0.00 | 0.00 | 0.00 | 66 | 1011.2 |
| 20260507204525 | 15 | 194 | 6.4 | 12.9 | 0.00 | 0.00 | 0.00 | 67 | 1011.3 |
| 20260507203034 | 15 | 219 | 4.8 | 12.9 | 0.00 | 0.00 | 0.00 | 67 | 1011.3 |
| 20260507201528 | 15 | 200 | 4.8 | 11.3 | 0.00 | 0.00 | 0.00 | 67 | 1011.3 |
| 20260507200031 | 15 | 187 | 4.8 | 12.9 | 0.00 | 0.00 | 0.00 | 69 | 1011.1 |
| 20260507194520 | 15 | 219 | 8.0 | 16.1 | 0.00 | 0.00 | 0.00 | 69 | 1011.1 |
| 20260507193039 | 15 | 217 | 4.8 | 17.7 | 0.00 | 0.00 | 0.00 | 70 | 1011.1 |
| 20260507191526 | 15 | 183 | 8.0 | 16.1 | 0.00 | 0.00 | 0.00 | 68 | 1011.1 |
| 20260507190034 | 15 | 192 | 9.7 | 16.1 | 0.00 | 0.00 | 0.00 | 70 | 1011.0 |
| 20260507184516 | 15 | 209 | 9.7 | 16.1 | 0.00 | 0.00 | 0.00 | 67 | 1010.9 |
| 20260507183033 | 15 | 171 | 6.4 | 17.7 | 0.00 | 0.00 | 0.00 | 69 | 1010.7 |
| 20260507181523 | 15 | 186 | 8.0 | 16.1 | 0.00 | 0.00 | 0.00 | 68 | 1010.7 |
| 20260507180026 | 15 | 196 | 6.4 | 17.7 | 0.00 | 0.00 | 0.00 | 68 | 1010.7 |
| 20260507174528 | 16 | 175 | 9.7 | 20.9 | 0.00 | 0.00 | 0.00 | 67 | 1010.7 |
| 20260507173017 | 16 | 189 | 6.4 | 19.3 | 0.00 | 0.00 | 0.00 | 64 | 1010.8 |
| 20260507171516 | 16 | 203 | 9.7 | 20.9 | 0.00 | 0.00 | 0.00 | 64 | 1010.8 |
| 20260507170020 | 16 | 192 | 9.7 | 24.1 | 0.00 | 0.00 | 0.00 | 64 | 1010.7 |
| 20260507164513 | 16 | 234 | 11.3 | 22.5 | 0.00 | 0.00 | 0.00 | 66 | 1010.5 |
| 20260507163017 | 17 | 209 | 14.5 | 25.7 | 0.00 | 0.00 | 0.00 | 61 | 1010.8 |
| 20260507161516 | 17 | 211 | 9.7 | 27.4 | 0.00 | 0.00 | 0.00 | 62 | 1010.8 |
| 20260507160018 | 16 | 202 | 12.9 | 24.1 | 0.00 | 0.00 | 0.00 | 66 | 1010.9 |
| 20260507154522 | 17 | 207 | 12.9 | 24.1 | 0.00 | 0.00 | 0.00 | 63 | 1011.0 |
| 20260507153022 | 17 | 182 | 16.1 | 25.7 | 0.00 | 0.00 | 0.00 | 64 | 1010.9 |
| 20260507151519 | 17 | 203 | 16.1 | 25.7 | 0.00 | 0.00 | 0.00 | 65 | 1010.9 |
| 20260507150019 | 17 | 173 | 12.9 | 27.4 | 0.00 | 0.00 | 0.00 | 66 | 1011.1 |
| 20260507144527 | 17 | 117 | 14.5 | 25.7 | 0.00 | 0.00 | 0.00 | 67 | 1011.1 |
| 20260507143015 | 17 | 187 | 11.3 | 27.4 | 0.00 | 0.00 | 0.00 | 68 | 1011.1 |
| 20260507141520 | 16 | 142 | 14.5 | 24.1 | 0.00 | 0.00 | 0.00 | 67 | 1011.2 |
| 20260507140023 | 17 | 238 | 9.7 | 20.9 | 0.00 | 0.00 | 0.00 | 66 | 1011.3 |
| 20260507134509 | 17 | 230 | 11.3 | 22.5 | 0.00 | 0.00 | 0.00 | 68 | 1011.4 |
| 20260507133012 | 17 | 177 | 9.7 | 24.1 | 0.00 | 0.00 | 0.00 | 66 | 1011.4 |
| 20260507131525 | 17 | 199 | 11.3 | 22.5 | 0.00 | 0.00 | 0.00 | 67 | 1011.4 |
| 20260507130038 | 17 | 159 | 9.7 | 22.5 | 0.00 | 0.00 | 0.00 | 67 | 1011.5 |
| 20260507124521 | 17 | 195 | 8.0 | 19.3 | 0.00 | 0.00 | 0.00 | 68 | 1011.7 |
| 20260507123013 | 17 | 202 | 9.7 | 19.3 | 0.00 | 0.00 | 0.00 | 66 | 1011.7 |
| 20260507121518 | 16 | 205 | 11.3 | 19.3 | 0.00 | 0.00 | 0.00 | 68 | 1011.9 |
| 20260507120032 | 17 | 183 | 8.0 | 17.7 | 0.00 | 0.00 | 0.00 | 66 | 1012.0 |
| 20260507114523 | 17 | 178 | 9.7 | 19.3 | 0.00 | 0.00 | 0.00 | 66 | 1011.9 |
| 20260507113008 | 17 | 261 | 11.3 | 22.5 | 0.00 | 0.00 | 0.00 | 66 | 1012.0 |
| 20260507111512 | 16 | 209 | 8.0 | 17.7 | 0.00 | 0.00 | 0.00 | 67 | 1012.1 |
| 20260507110024 | 16 | 209 | 12.9 | 22.5 | 0.00 | 0.00 | 0.00 | 66 | 1012.1 |
| 20260507104522 | 16 | 169 | 6.4 | 24.1 | 0.00 | 0.00 | 0.00 | 69 | 1012.0 |
| 20260507103027 | 16 | 184 | 9.7 | 14.5 | 0.00 | 0.00 | 0.00 | 67 | 1012.0 |
| 20260507101511 | 16 | 250 | 11.3 | 17.7 | 0.00 | 0.00 | 0.00 | 68 | 1011.9 |
| 20260507100022 | 16 | 202 | 8.0 | 14.5 | 0.00 | 0.00 | 0.00 | 67 | 1011.9 |
| 20260507094523 | 16 | 178 | 6.4 | 12.9 | 0.00 | 0.00 | 0.00 | 66 | 1011.8 |
| 20260507093024 | 16 | 212 | 4.8 | 12.9 | 0.00 | 0.00 | 0.00 | 67 | 1011.7 |
| 20260507091523 | 16 | 232 | 3.2 | 16.1 | 0.00 | 0.00 | 0.00 | 68 | 1011.7 |
| 20260507090015 | 16 | 211 | 8.0 | 16.1 | 0.00 | 0.00 | 0.00 | 71 | 1011.7 |
| 20260507084520 | 15 | 226 | 9.7 | 19.3 | 0.00 | 0.00 | 0.00 | 71 | 1011.6 |
| 20260507083024 | 15 | 270 | 9.7 | 16.1 | 0.00 | 0.00 | 0.00 | 71 | 1011.7 |
| 20260507081525 | 15 | 234 | 6.4 | 16.1 | 0.00 | 0.00 | 0.00 | 73 | 1011.7 |
| 20260507080028 | 15 | 234 | 9.7 | 16.1 | 0.00 | 0.00 | 0.00 | 74 | 1011.6 |
| 20260507074518 | 15 | 214 | 11.3 | 19.3 | 0.00 | 0.00 | 0.00 | 76 | 1011.4 |
| 20260507073022 | 14 | 247 | 8.0 | 16.1 | 0.00 | 0.00 | 0.00 | 77 | 1011.4 |
| 20260507071530 | 13 | 232 | 6.4 | 11.3 | 0.00 | 0.00 | 0.00 | 80 | 1011.3 |
| 20260507070035 | 13 | 272 | 4.8 | 9.7 | 0.00 | 0.00 | 0.00 | 82 | 1011.2 |
| 20260507064524 | 12 | 278 | 1.6 | 3.2 | 0.00 | 0.00 | 0.00 | 82 | 1011.3 |
| 20260507063025 | 12 | 279 | 3.2 | 9.7 | 0.00 | 0.00 | 0.00 | 82 | 1011.1 |
| 20260507061527 | 12 | 295 | 3.2 | 4.8 | 0.00 | 0.00 | 0.00 | 83 | 1011.0 |
| 20260507060026 | 12 | 295 | 1.6 | 4.8 | 0.00 | 0.00 | 0.00 | 82 | 1010.8 |
| 20260507054536 | 12 | 295 | 3.2 | 4.8 | 0.00 | 0.00 | 0.00 | 82 | 1010.7 |
| 20260507053018 | 12 | 294 | 1.6 | 4.8 | 0.00 | 0.00 | 0.00 | 82 | 1010.5 |
| 20260507051507 | 12 | 327 | 0.0 | 8.0 | 0.00 | 0.00 | 0.00 | 82 | 1010.6 |
| 20260507050009 | 12 | 288 | 3.2 | 6.4 | 0.00 | 0.00 | 0.00 | 81 | 1010.4 |
| 20260507044514 | 12 | 255 | 4.8 | 12.9 | 0.00 | 0.00 | 0.00 | 81 | 1010.3 |
| 20260507043018 | 13 | 232 | 6.4 | 12.9 | 0.00 | 0.00 | 0.00 | 80 | 1010.3 |
| 20260507041530 | 13 | 234 | 9.7 | 16.1 | 0.00 | 0.00 | 0.00 | 80 | 1010.4 |
| 20260507040007 | 13 | 238 | 9.7 | 19.3 | 0.00 | 0.00 | 0.00 | 80 | 1010.3 |
| 20260507034515 | 13 | 235 | 8.0 | 14.5 | 0.00 | 0.00 | 0.00 | 81 | 1010.4 |
| 20260507033018 | 13 | 215 | 9.7 | 16.1 | 0.00 | 0.00 | 0.00 | 80 | 1010.5 |
| 20260507031526 | 13 | 236 | 8.0 | 16.1 | 0.00 | 0.00 | 0.00 | 81 | 1010.7 |
| 20260507030025 | 13 | 214 | 6.4 | 12.9 | 0.00 | 0.00 | 0.00 | 81 | 1010.8 |
| 20260507024512 | 13 | 246 | 8.0 | 16.1 | 0.00 | 0.00 | 0.00 | 80 | 1010.8 |
| 20260507023015 | 13 | 257 | 9.7 | 17.7 | 0.00 | 0.00 | 0.00 | 80 | 1010.7 |
| 20260507021518 | 13 | 244 | 11.3 | 16.1 | 0.00 | 0.00 | 0.00 | 81 | 1010.7 |
| 20260507020023 | 13 | 240 | 9.7 | 16.1 | 0.00 | 0.00 | 0.00 | 81 | 1010.8 |
| 20260507014538 | 13 | 256 | 9.7 | 17.7 | 0.00 | 0.00 | 0.00 | 81 | 1010.9 |
| 20260507013021 | 13 | 223 | 11.3 | 19.3 | 0.00 | 0.00 | 0.00 | 82 | 1011.0 |
| 20260507011521 | 12 | 246 | 8.0 | 16.1 | 0.00 | 0.00 | 0.00 | 83 | 1011.1 |